Regional Weather Roundup
Issued by NWS Newport/Morehead, NC

Home | Current Version | Previous Version | Text Only | Print | Product List | Glossary On
Versions: 1 2 3 4 5 6 7 8 9 10 11 12 13 14 15 16 17 18 19 20 21 22 23 24 25 26 27 28 29 30 31 32 33 34 35 36 37 38 39 40 41 42 43 44 45 46 47 48 49 50
000
ASUS42 KMHX 241413
RWRMHX
WEATHER ROUNDUP FOR EASTERN NORTH CAROLINA
NATIONAL WEATHER SERVICE NEWPORT/MOREHEAD CITY NC
1000 AM EDT WED AUG 24 2016

NOTE: "FAIR" INDICATES FEW OR NO CLOUDS BELOW 12,000 FEET
WITH NO SIGNIFICANT WEATHER AND/OR OBSTRUCTIONS TO VISIBILITY

NCZ015>017-031-032-045>047-102-103-241500-
NORTH COAST

CITY           SKY/WX    TMP DP  RH WIND       PRES   REMARKS
EDENTON        SUNNY     78  63  58 NE8       30.31R
ELIZABETH CITY SUNNY     79  62  56 N12       30.30R
KITTY HAWK     SUNNY     82  72  70 NE3       30.27R
MANTEO         MOSUNNY   79  69  71 NE10      30.29R

$$

NCZ045>047-081-094-103-104-241500-
CENTRAL COAST

CITY           SKY/WX    TMP DP  RH WIND       PRES   REMARKS
FRISCO         PTSUNNY   81  71  71 NE9G20    30.25S

$$

NCZ095-097-098-100-101-241500-
SOUTHERN COAST

CITY           SKY/WX    TMP DP  RH WIND       PRES   REMARKS
BEAUFORT       MOSUNNY   80  68  66 N12       30.26S
CEDAR ISLAND   NOT AVBL
JACKSONVILLE   SUNNY     78  62  57 N8        30.28S
PINEY ISLAND   NOT AVBL
WILMINGTON     SUNNY     78  61  55 N13       30.28S


$$

NCZ011>013-027>030-043-044-078>080-089-090>093-098-241500-
COASTAL PLAIN

CITY           SKY/WX    TMP DP  RH WIND       PRES   REMARKS
AHOSKIE        SUNNY     74  62  66 N5        30.32S
CLINTON        SUNNY     78  64  61 E5        30.31S
ELIZABETHTOWN  SUNNY     79  60  52 CALM      30.30S
GOLDSBORO      SUNNY     78  63  60 N5        30.30R
GREENVILLE     SUNNY     77  63  61 NE8       30.31S
HAVELOCK       MOSUNNY   79  63  57 N10       30.29R
KENANSVILLE    NOT AVBL
KINSTON        NOT AVBL
NEW BERN       SUNNY     76  63  64 N10       30.30S
RICHLANDS      SUNNY     77  64  64 NE9       30.30S
ROCKY MOUNT    MOSUNNY   77  62  59 NE5       30.32S
WASHINGTON     SUNNY     76  64  66 N8        30.30S
WHITEVILLE     SUNNY     79  62  54 NE6       30.29R

$$

AMZ130-135-150-152-154-156-158-170-250-252-270-ANZ085-086-088-633-658-670-241500-
MARINE OBSERVATIONS

STATION/POSITION TIME  TEMP    WIND        PRES    WAVE   SWELL
                       AIR SEA DIR/SP/G            HT/PER HT/PER
                 (UTC) (F)     (DEG/KT/KT) (MB)    (FT/S) (FT/S)
CHESAPEAKE LIGHT NOT AVBL
64 E VA BEACH    1350   78 81   50/ 10/ 14 1025.1    2/ 7   2/ 7
DUCK             1300   77 78   20/  9/ 11 1024.6
2 E DUCK         1311      78                N/A     2/ 4
OREGON INLET     1300   78 77   20/  8/ 12 1024.6
13E OREGON INLT  1400      79                N/A     3/ 4   2/13
HATTERAS CG      1300   78 79   40/ 12/ 15 1023.9
DIAMOND BUOY     1350   82 84  100/ 10/ 12 1023.8    3/ 8   3/ 8
CAPE LOOKOUT     1400   78      10/ 13/ 17 1024.3
BEAUFORT LAB     1300   76 80   10/  8/ 11 1024.2
30 SE NEW RVR IN 1308   78 84   40/ 12/ 17 1024.3
30 SE NEW RVR IN 1325      84                N/A     3/ 3
27 SE WRIGHTSVLE 1308   79 84   30/ 14/ 17 1024.5
5 SE WRIGHTSVLE  NOT AVBL
225 S CAPE HAT   1350   82 85   60/ 16/ 19 1021.4    5/ 6   2/11
41 SE CHARLESTON 1350   83 84   50/ 16/ 19 1022.8    4/ 6   2/ 7

$$




USA.gov is the U.S. government's official web portal to all federal, state and local government web resources and services.